Location: Rancho Del Sol Observatory
(38.7214°N, 120.6350°W)
Time: 03:34:26
(UTC-08:00)

Hubble Space Telescope - Visible Passes

Search period start: 07 December 2019 00:00
Search period end: 17 December 2019 00:00
Orbit: 536 x 540 km, 28.5° (Epoch: 06 December)

Date Brightness Start Highest point End Pass type
(mag) Time Alt. Az. Time Alt. Az. Time Alt. Az.
15 Dec 3.5 05:00:59 10° S 05:02:28 12° SSE 05:03:56 10° SE visible
15 Dec 3.1 06:40:00 10° SW 06:42:57 19° S 06:45:55 10° SE visible
16 Dec 3.3 04:51:15 13° S 04:51:44 13° SSE 04:53:47 10° SE visible
16 Dec 3.0 06:29:15 10° SW 06:32:15 19° S 06:35:16 10° SE visible
